Starlink 11640

operational
NORAD ID: 63314 Int'l Des: 2025-057 Owner: SPXS Country: US Constellation: starlink
LEOCIRCULAR

关于 Starlink 11640

正在加载描述...

实时位置

正在加载3D地球...

即将过境

高度历史

Altitude vs Time

uPlot chart will show altitude changes over time

两行轨道根数

1 63314U 25057H 25305.48937252 .00176812 00000-0 13499-2 0 9994
2 63314 42.9992 317.4049 0001127 247.6388 112.4361 15.70882622 37011
Epoch: Nov 1, 2025 • Age: 26 hours

当前状态

高度 367.4 km
速度 7.69 km/s
星下点 -41.83°S, 37.12°W
发射日期 Mar 18, 2025
运行时间 0.6 years
类型 internet

技术详情

分类 Payload
质量 960.00 kg
干质量 910.00 kg
总质量 960.00 kg
长度 0.30 m
直径 4.10 m
跨度 29.00 m
形状 Box + pan
制造商 SPXS
平台类型 Starlink V2MD
阶段状态 In Orbit
所有者/国家 SPXS/US

大型星座

Loading constellations...